GFSFLT1_con_mucape_120.txt.gz
CAPE
1085 858 930 932 704 686 509 262 133 51 4 1 1 0 0 0 0 0 3 6 16 16 11 13 13 17 16 15 16 16 16 18 20
1024 663 801 789 724 605 433 201 85 4 1 1 0 0 0 0 0 0 3 11 15 12 11 14 12 13 12 16 14 12 14 20 24
874 809 796 828 830 616 487 175 8 2 0 0 0 0 0 0 0 0 3 18 13 12 13 13 11 13 10 12 11 11 13 12 12
841 775 818 855 643 616 485 84 2 0 0 0 0 0 0 0 0 0 2 19 11 12 9 8 8 8 8 8 7 11 8 11 14
540 374 442 577 483 435 231 17 0 0 0 0 0 0 0 0 0 0 4 18 12 11 8 5 5 5 5 5 6 7 6 6 6
129 3 141 371 535 349 165 0 0 0 0 0 0 0 0 0 0 0 10 10 7 6 5 4 4 4 3 3 4 4 5 5 6
0 19 0 222 228 129 38 0 0 0 0 0 0 0 0 0 0 0 9 3 4 4 3 3 2 2 2 2 2 2 2 2 2
14 179 17 111 54 7 0 0 0 0 0 0 0 0 0 0 0 0 6 3 3 3 2 1 2 1 1 1 1 1 0 0 0
6 100 25 20 13 8 0 0 0 0 0 0 0 0 0 0 0 0 0 3 1 1 1 1 1 1 1 0 0 0 0 0 0
7 45 36 14 9 2 0 0 0 0 0 0 0 0 0 0 0 0 0 0 0 1 0 1 1 1 0 0 0 0 0 0 0
17 24 47 16 1 0 0 0 0 0 0 0 0 0 0 0 0 0 0 0 0 0 2 2 2 1 1 0 0 0 0 0 0
14 58 49 11 1 0 0 0 0 0 0 0 0 0 0 0 0 0 0 0 0 0 2 3 3 4 3 3 0 0 0 0 0
8 67 59 15 4 0 0 0 0 0 0 0 0 0 0 0 0 0 0 0 0 0 6 44 5 5 2 8 3 0 0 0 0
0 10 31 20 8 0 0 0 0 4 1 2 0 0 0 0 0 0 0 0 0 3 0 0 13 46 14 17 48 10 0 0 0
13 8 14 14 6 1 0 0 0 0 12 0 0 0 0 0 0 0 0 0 0 0 0 0 0 0 43 66 68 142 123 64 11
20 29 21 5 0 0 0 0 0 2 0 0 0 0 3 0 0 0 0 0 0 0 0 16 22 10 0 57 100 155 166 118 138
11 10 9 1 0 0 0 0 5 0 2 22 27 33 29 0 0 0 0 0 0 0 1 0 11 26 31 27 38 95 143 169 175
7 2 0 0 0 0 0 0 6 17 11 18 51 55 16 0 0 13 3 0 5 13 1 0 1 17 39 9 5 8 25 4 31
1 0 0 0 0 0 0 0 21 66 242 29 16 19 27 76 50 18 9 1 2 3 20 0 0 1 8 29 26 37 23 20 19
15 13 14 11 0 1 1 12 47 80 100 154 109 73 63 73 59 18 30 4 0 13 1 0 0 0 4 26 23 20 11 13 20

GFSFLT1_con_mucape_123.txt.gz
CAPE
1241 922 1022 872 672 619 642 306 7 4 5 2 0 0 0 0 0 0 5 6 10 16 17 18 16 15 13 15 15 15 21 12 19
1200 905 1009 910 664 533 393 297 5 3 1 0 0 0 0 0 0 2 4 12 15 17 16 17 15 14 16 11 14 14 13 18 15
1161 1029 928 833 540 416 265 155 5 1 0 0 0 0 0 0 0 6 8 23 15 12 14 11 10 12 14 12 12 13 13 13 14
906 829 919 875 629 437 280 10 2 0 0 0 0 0 0 0 0 0 4 12 15 16 13 13 13 14 13 13 10 13 14 10 12
505 510 718 748 465 370 164 6 1 0 0 0 0 0 0 0 0 0 4 21 11 9 10 9 9 10 8 10 8 8 7 11 9
171 53 416 411 356 188 64 1 0 0 0 0 0 0 0 0 0 0 13 10 7 8 6 6 5 4 4 4 3 3 4 5 4
58 122 261 268 159 32 0 0 0 0 0 0 0 0 0 0 0 0 12 5 5 4 3 3 2 2 2 2 2 1 0 1 1
86 255 248 183 0 1 0 0 0 0 0 0 0 0 0 0 0 0 5 4 3 3 1 1 1 1 0 0 0 0 0 0 0
39 50 35 110 13 0 0 0 0 0 0 0 0 0 0 0 0 0 0 4 2 3 1 0 0 0 0 0 0 0 0 0 0
13 19 30 43 16 0 0 0 0 0 0 0 0 0 0 0 0 0 0 0 2 1 1 1 0 0 0 0 0 0 0 0 0
27 18 24 13 15 2 0 0 0 0 0 0 0 0 0 0 0 0 0 0 0 0 1 2 2 1 1 0 0 0 0 0 0
125 78 24 15 10 0 0 0 2 0 0 0 0 0 0 0 0 0 0 0 0 0 1 3 3 2 4 3 0 0 0 0 0
45 74 14 11 9 0 0 2 1 1 0 0 0 0 0 0 0 0 0 0 0 0 0 34 6 4 4 5 3 0 0 0 0
10 22 11 13 8 3 1 1 0 23 7 4 0 0 4 0 0 0 0 0 0 1 0 0 12 50 34 9 21 10 0 0 0
42 144 115 21 16 4 0 0 0 16 7 0 0 0 0 0 0 0 0 0 0 0 1 0 0 0 64 107 95 144 170 77 29
6 23 37 24 12 5 0 0 0 0 21 11 4 4 5 0 0 0 0 0 0 0 0 8 28 3 3 91 148 178 178 139 134
4 8 14 9 16 8 0 0 0 10 19 25 113 61 61 13 24 27 7 0 1 1 0 0 3 42 61 26 44 98 116 173 204
10 15 16 14 8 3 0 3 36 23 36 23 122 121 88 17 0 8 4 9 12 12 0 3 1 5 3 30 17 13 5 6 27
22 31 37 10 4 0 0 13 29 62 126 60 43 145 120 43 57 42 24 23 37 27 0 2 7 2 0 0 1 4 10 11 5
45 43 6 2 0 0 9 10 34 70 242 325 196 215 97 93 104 76 76 7 0 4 0 10 0 0 0 0 0 0 10 17 10

GFSFLT1_con_mucape_126.txt.gz
CAPE
1186 733 917 745 649 602 482 153 20 31 5 0 0 0 0 0 0 0 3 2 16 17 9 12 12 15 16 22 29 13 23 22 29
1138 979 923 746 648 677 169 165 7 5 0 0 0 0 0 0 0 0 0 8 17 16 8 7 14 17 17 26 15 17 15 21 11
1021 1005 855 711 653 456 147 3 4 0 0 0 0 0 0 0 0 0 1 12 12 16 10 14 7 13 12 10 9 13 8 10 12
1097 980 890 672 445 342 33 7 1 0 0 0 0 0 0 0 0 0 1 5 10 14 7 11 8 8 7 7 8 10 5 8 10
521 495 633 535 369 194 4 4 0 0 0 0 0 0 0 0 0 0 2 22 12 10 9 8 9 10 9 6 6 6 8 10 12
151 322 322 274 253 116 10 1 0 0 0 0 0 0 0 0 0 0 14 12 7 6 5 5 5 5 3 4 4 4 6 8 8
35 273 211 160 50 0 1 0 0 0 0 0 0 0 0 0 0 0 10 7 5 4 3 2 2 2 1 2 2 2 1 2 1
70 132 126 32 0 0 0 0 0 0 0 0 0 0 0 0 0 0 6 7 4 2 2 2 1 1 1 0 0 0 0 0 0
36 78 65 9 0 0 0 0 0 0 0 0 0 0 0 0 0 0 0 5 2 1 1 1 0 0 0 0 0 0 0 0 0
11 16 37 0 0 0 0 0 0 0 0 0 0 0 0 0 0 0 0 0 2 2 1 0 0 0 0 0 0 0 0 0 0
7 0 11 7 0 0 0 0 0 0 0 0 0 0 0 0 0 0 0 0 0 0 1 2 1 1 1 0 0 0 0 0 0
11 0 0 0 0 0 0 0 0 0 0 0 0 0 0 0 0 0 0 0 0 0 1 2 2 2 4 3 0 0 0 0 0
11 0 0 0 0 0 0 0 0 0 0 0 0 0 0 0 0 0 0 0 0 0 0 32 7 5 6 6 5 0 0 0 0
68 49 1 2 0 0 0 0 0 0 0 0 0 0 0 0 0 0 0 0 0 0 0 0 10 41 54 17 26 29 9 0 0
23 51 5 0 0 0 0 0 0 0 0 0 0 0 0 0 0 0 0 0 0 0 0 0 0 8 48 103 118 144 198 151 79
10 18 6 3 0 0 0 0 0 0 0 0 0 0 0 0 0 0 0 0 0 0 0 0 3 0 4 97 175 186 219 207 189
2 0 21 6 0 0 0 0 0 0 0 0 14 27 19 14 5 10 8 0 0 0 0 10 3 0 10 9 52 170 166 165 163
0 1 19 8 0 0 0 0 0 0 0 21 28 23 1 10 0 5 9 4 5 9 0 1 2 0 0 0 7 16 9 6 6
10 21 19 5 0 0 0 0 0 0 4 2 22 28 27 1 0 11 15 21 26 7 0 11 0 1 0 0 1 4 12 6 3
28 17 7 0 0 0 0 0 0 22 33 22 10 13 18 6 0 1 16 5 0 0 0 0 0 0 3 0 0 0 4 0 10

GFSFLT1_con_mucape_129.txt.gz
CAPE
993 916 939 737 596 753 626 457 255 141 137 31 0 2 1 0 0 0 8 1 11 12 21 19 15 21 29 16 16 21 26 14 17
1054 1030 924 726 580 535 287 113 15 15 15 0 0 0 0 0 0 0 2 5 18 11 12 21 7 7 8 12 15 4 17 14 22
1159 1040 848 658 601 254 6 6 5 0 0 0 0 0 0 0 0 0 4 29 19 14 13 10 15 9 10 15 12 11 12 11 11
1278 990 827 641 577 106 6 5 0 0 0 0 0 0 0 0 0 0 1 19 12 11 8 6 7 7 10 10 10 10 10 5 13
939 584 561 482 305 17 10 1 0 0 0 0 0 0 0 0 0 0 2 22 12 7 9 8 9 11 7 6 8 8 7 11 8
382 361 300 280 135 8 7 0 0 0 0 0 0 0 0 0 0 0 20 11 10 7 7 7 7 5 5 3 3 4 3 5 8
171 259 164 170 54 11 3 0 0 0 0 0 0 0 0 0 0 0 14 10 5 6 4 3 3 3 2 1 1 2 2 2 3
98 126 90 2 0 0 0 0 0 0 0 0 0 0 0 0 0 0 6 8 4 3 2 2 2 2 1 0 0 0 0 0 0
49 72 25 0 0 0 0 0 0 0 0 0 0 0 0 0 0 0 0 6 2 2 2 1 0 0 0 0 0 0 0 0 0
51 92 81 0 0 0 0 0 0 0 0 0 0 0 0 0 0 0 0 0 4 2 1 1 0 0 0 0 0 0 0 0 0
48 20 7 0 0 0 0 0 0 0 0 0 0 0 0 0 0 0 0 0 0 1 2 2 1 1 0 0 0 0 0 0 0
68 4 0 0 0 0 0 0 0 0 0 0 0 0 0 0 0 0 0 0 0 0 1 1 1 1 1 2 0 0 0 0 0
44 2 0 0 0 0 0 0 0 0 0 0 0 0 0 0 0 0 0 0 0 0 9 18 4 2 5 4 5 4 0 0 0
42 8 2 0 0 0 0 0 0 0 0 0 0 0 0 0 0 0 0 0 0 0 0 0 10 30 31 23 15 38 58 20 2
45 113 6 0 0 0 0 0 0 0 0 0 0 0 0 0 0 0 0 0 0 0 0 0 0 6 52 75 95 105 186 159 118
42 52 0 0 0 0 0 0 0 0 0 0 0 0 0 0 0 0 0 0 0 0 0 0 0 1 5 60 125 182 187 185 154
29 13 4 0 0 0 0 0 0 0 0 0 0 0 0 1 0 0 0 0 0 0 0 0 0 0 0 0 18 148 174 163 161
23 12 10 1 0 0 0 0 0 0 0 0 2 10 0 7 0 0 0 0 0 0 0 0 0 0 0 0 6 13 31 39 20
50 38 8 3 0 0 0 0 0 0 0 0 22 8 0 0 0 0 0 0 2 0 0 0 0 2 4 8 6 1 15 8 4
41 10 15 2 0 0 0 0 0 0 0 10 21 11 0 0 0 0 0 0 0 0 0 0 0 0 0 11 1 2 0 2 1

GFSFLT1_con_mucape_132.txt.gz
CAPE
672 1093 919 682 922 775 547 553 376 357 107 15 10 0 0 0 0 0 4 1 17 21 10 24 35 17 18 17 16 21 15 19 33
1195 1105 803 783 705 795 527 427 103 30 11 0 0 0 0 0 0 0 3 14 11 7 12 14 14 15 16 16 13 16 15 25 21
1325 1078 858 771 742 677 406 195 47 0 1 0 0 0 0 0 0 0 12 24 26 10 13 11 8 12 14 11 13 12 11 7 17
1253 1035 864 708 448 19 3 52 3 0 0 0 0 0 0 0 0 0 3 5 18 8 10 7 10 12 10 10 11 11 12 14 7
1068 658 638 562 222 12 77 2 0 0 0 0 0 0 0 0 0 0 3 23 14 11 12 9 8 9 10 10 10 11 12 9 11
604 420 401 306 60 25 3 0 0 0 0 0 0 0 0 0 0 0 17 15 12 13 9 8 7 6 5 8 7 6 6 8 8
300 345 269 125 2 5 1 0 0 0 0 0 0 0 0 0 0 0 14 13 9 8 7 5 4 4 3 2 2 2 2 2 2
184 149 138 14 0 2 0 0 0 0 0 0 0 0 0 0 0 0 12 9 4 3 2 2 2 2 1 1 0 0 0 1 0
163 97 47 1 0 0 0 0 0 0 0 0 0 0 0 0 0 0 0 9 3 2 2 1 1 0 0 0 0 0 0 0 0
115 60 27 7 0 0 0 0 0 0 0 0 0 0 0 0 0 0 0 1 3 1 1 1 0 0 0 0 0 0 0 0 0
127 57 79 18 2 0 0 0 0 0 0 0 0 0 0 0 0 0 0 0 0 0 1 1 1 1 1 0 0 0 0 0 0
152 42 38 34 5 0 0 0 0 0 0 0 0 0 0 0 0 0 0 0 0 0 2 2 3 3 3 1 0 0 0 0 0
187 59 79 38 5 0 0 0 0 0 0 0 0 0 0 0 0 0 0 0 0 0 13 23 7 3 3 7 4 4 0 0 1
214 53 105 46 7 0 0 0 0 0 0 0 0 0 0 0 0 0 0 0 0 0 0 0 0 11 11 34 26 9 35 26 2
230 69 139 42 5 0 0 0 0 0 0 0 0 0 0 0 0 0 0 0 0 0 0 0 0 0 22 65 91 113 106 145 120
179 144 103 31 0 0 0 0 0 0 0 0 0 0 0 0 0 0 0 0 0 0 0 0 0 0 0 24 80 106 131 120 86
138 155 59 3 7 0 0 0 0 0 0 0 0 0 0 0 0 0 0 0 0 0 0 0 0 0 0 0 1 26 88 82 86
105 141 75 17 10 0 0 0 0 0 0 0 0 0 0 0 0 0 0 0 0 0 0 0 0 0 0 0 0 13 17 34 28
89 133 50 12 0 0 0 0 0 0 0 0 0 0 0 0 0 0 0 0 0 0 0 0 0 0 0 1 4 14 23 6 17
87 98 50 0 0 0 0 0 0 0 0 0 0 1 0 0 0 0 0 0 0 0 0 0 0 0 0 0 4 9 0 0 0

GFSFLT1_con_mucape_135.txt.gz
CAPE
963 1103 832 799 757 682 573 406 199 332 228 17 0 0 0 0 0 2 7 9 15 18 25 13 22 34 8 21 26 16 9 27 37
1199 1106 773 1009 775 649 519 148 1 42 171 16 0 0 0 0 0 0 3 3 16 22 29 13 13 29 8 15 29 26 29 29 13
1328 1053 821 949 848 719 598 110 0 0 70 0 0 0 0 0 0 1 5 47 22 9 9 14 10 11 16 13 12 16 3 12 24
1252 975 848 748 853 663 529 217 0 0 0 0 0 0 0 0 0 3 1 18 17 9 12 15 9 9 8 8 7 12 7 10 12
1169 695 606 623 439 242 302 208 0 0 0 0 0 0 0 0 0 0 2 8 13 13 6 11 8 9 8 9 6 8 7 8 9
752 504 363 307 218 204 178 75 0 0 0 0 0 0 0 0 0 0 10 12 12 10 10 6 5 5 6 6 4 4 4 5 4
475 430 293 169 48 99 72 0 0 0 0 0 0 0 0 0 0 0 14 13 8 7 5 3 1 3 2 2 1 1 2 4 2
350 255 197 1 0 3 2 0 0 0 0 0 0 0 0 0 0 0 8 10 6 4 2 2 1 1 1 1 0 0 0 1 0
268 177 104 20 0 0 0 0 0 0 0 0 0 0 0 0 0 0 0 8 4 2 1 1 1 1 1 0 0 0 0 0 0
222 153 83 55 6 0 0 0 0 0 0 0 0 0 0 0 0 0 0 1 4 2 1 1 1 1 0 0 0 0 0 0 0
206 142 53 54 15 0 0 0 0 0 0 0 0 0 0 0 0 0 0 0 0 3 3 3 3 2 1 0 0 0 0 0 0
218 203 102 39 16 0 0 0 0 0 0 0 0 0 0 0 0 0 0 0 0 0 2 4 4 4 3 5 1 0 0 0 0
196 218 188 83 48 0 0 0 0 0 0 0 0 0 0 0 0 0 0 0 0 0 0 28 6 3 7 5 22 9 4 0 0
201 184 206 88 66 2 0 0 0 0 0 0 0 0 0 0 0 0 0 0 0 0 0 0 0 1 1 7 21 25 53 61 18
167 133 145 114 90 29 0 0 0 0 0 0 0 0 0 0 0 0 0 0 0 0 0 0 0 0 2 21 70 97 110 138 112
166 121 111 105 82 34 4 0 0 0 0 0 0 0 0 0 0 0 0 0 0 0 0 0 0 0 0 0 17 72 127 118 130
136 86 51 68 77 54 20 0 0 0 0 0 0 0 0 0 0 0 0 0 0 0 0 0 0 0 0 0 0 0 16 42 83
86 57 42 59 74 53 6 0 0 0 0 0 0 0 0 0 0 0 0 0 0 0 0 0 0 0 0 0 0 0 8 23 20
21 57 58 68 68 53 23 0 0 0 0 0 0 0 0 0 0 0 0 0 0 0 0 0 0 0 0 0 0 1 5 11 16
8 62 48 106 87 55 12 12 0 0 0 0 0 0 0 0 0 0 0 0 0 0 0 0 0 0 0 0 0 0 0 4 0

GFSFLT1_con_mucape_138.txt.gz
CAPE
999 1191 958 875 880 849 486 453 70 166 96 2 2 0 0 0 0 0 16 7 19 24 29 40 21 12 36 37 16 20 17 17 20
1086 1130 1047 944 897 612 562 183 80 279 73 1 2 0 0 0 0 0 0 7 48 26 25 26 24 4 17 14 12 15 10 4 13
1431 1239 1107 986 824 662 367 26 2 238 78 0 0 0 0 0 0 0 9 17 34 8 21 17 10 9 9 9 11 8 5 10 9
1440 1168 1145 990 842 666 343 98 7 233 13 0 0 0 0 0 0 2 8 38 24 14 7 8 9 7 7 7 10 3 9 8 11
1176 749 874 894 735 591 262 98 0 87 17 0 0 0 0 0 0 0 4 8 7 7 9 6 8 6 5 5 7 7 7 6 10
790 495 622 609 594 566 419 112 0 0 0 0 0 0 0 0 0 0 3 5 8 7 6 6 6 6 5 5 4 6 6 4 6
594 426 473 345 219 283 369 76 0 0 0 0 0 0 0 0 0 0 8 10 6 6 4 2 4 3 3 3 3 3 2 3 0
523 372 320 79 3 30 30 0 0 0 0 0 0 0 0 0 0 0 10 10 5 5 4 3 2 2 1 1 1 0 0 0 0
299 271 195 47 0 0 0 0 0 0 0 0 0 0 0 0 0 0 1 10 4 5 4 3 3 1 1 0 0 0 0 0 0
226 198 155 58 8 0 0 0 0 0 0 0 0 0 0 0 0 0 0 0 9 5 4 3 3 2 1 0 0 0 0 0 0
190 178 100 85 11 0 0 0 0 0 0 0 0 0 0 0 0 0 0 0 1 4 4 6 5 4 4 2 0 0 0 0 0
178 132 105 83 21 0 0 0 0 0 0 0 0 0 0 0 0 0 0 0 0 0 6 8 6 7 5 5 3 1 0 0 0
212 175 169 160 59 14 0 0 0 0 0 0 0 0 0 0 0 0 0 0 0 0 0 24 11 10 12 14 24 23 16 1 0
223 194 183 192 76 34 0 0 0 0 0 0 0 0 0 0 0 0 0 0 0 0 0 0 0 10 38 51 52 70 88 111 71
234 213 188 83 107 62 4 0 2 0 0 0 0 0 0 0 0 0 0 0 0 0 0 0 0 0 0 7 60 109 132 152 124
116 191 106 85 109 71 30 22 9 0 0 0 0 0 0 0 0 0 0 0 0 0 0 0 0 0 0 0 0 30 81 119 111
117 99 124 82 97 41 68 17 23 3 0 0 0 0 0 0 0 0 0 0 0 0 0 0 0 0 0 0 0 0 0 20 55
61 97 57 81 66 24 42 43 42 10 0 0 0 0 0 0 0 0 0 0 0 0 0 0 0 0 0 0 0 0 0 9 25
37 94 7 1 15 8 21 67 47 27 1 0 0 0 0 0 0 0 0 0 0 0 0 0 0 0 0 0 0 0 0 0 1
38 45 96 69 19 2 10 60 53 62 15 0 0 0 0 0 0 0 0 0 0 0 0 4 7 0 0 0 0 0 0 0 0

GFSFLT1_con_mucape_141.txt.gz
CAPE
692 795 1105 1213 1031 949 686 307 200 130 63 5 2 0 0 0 5 8 18 21 17 49 47 14 26 33 34 30 23 23 18 18 15
1311 1246 1173 1150 1028 886 549 67 28 117 41 3 0 0 0 0 3 2 7 42 33 30 30 24 19 23 19 18 20 15 6 11 11
1436 1243 1171 1131 1053 879 655 216 87 106 37 3 0 0 0 0 0 2 9 64 18 23 24 7 12 13 15 17 18 13 10 12 10
1482 1259 1189 1122 1079 846 557 462 404 183 3 1 0 0 0 0 1 5 21 49 8 12 11 14 8 7 11 10 3 16 7 11 8
1244 953 941 976 880 577 252 225 585 144 16 0 0 0 0 0 0 5 7 31 12 9 8 8 6 4 4 5 4 8 5 8 5
1006 699 742 668 728 459 241 113 201 27 0 0 0 0 0 0 0 2 4 5 10 9 10 6 6 4 4 1 2 4 1 3 4
852 625 713 609 510 360 279 25 0 0 0 0 0 0 0 0 0 2 8 11 8 8 7 4 4 4 3 1 1 1 2 0 0
630 569 677 634 347 441 119 2 0 0 0 0 0 0 0 0 0 0 5 14 10 7 5 3 3 2 0 0 0 0 0 0 0
478 532 579 414 278 253 102 0 0 0 0 0 0 0 0 0 0 0 1 11 11 7 4 5 4 2 0 0 0 0 0 0 0
474 482 360 212 112 82 20 0 0 0 0 0 0 0 0 0 0 0 0 0 10 7 6 5 5 2 0 0 0 0 0 0 0
330 463 267 146 67 24 1 0 0 0 0 0 0 0 0 0 0 0 0 0 2 7 7 8 6 6 4 3 0 0 0 0 0
470 224 322 136 126 71 11 0 0 0 0 0 0 0 0 0 0 0 0 0 0 0 9 4 4 3 4 7 4 2 0 0 0
377 286 221 104 102 113 66 0 0 0 0 0 0 0 0 0 0 0 0 0 0 0 0 7 10 7 6 22 37 56 20 3 0
346 224 249 117 59 82 78 16 0 0 0 0 0 0 0 0 0 0 0 0 0 0 0 0 0 7 50 72 85 94 126 121 98
226 301 239 182 82 70 67 31 0 0 0 0 0 0 0 0 0 0 0 0 0 0 0 0 0 0 0 14 55 78 105 145 120
88 116 281 162 117 106 100 39 11 0 0 0 0 0 0 0 0 0 0 0 0 0 0 0 0 0 0 0 0 0 29 68 72
0 32 100 107 38 79 129 55 29 0 4 0 0 0 0 0 0 0 0 0 0 0 0 0 0 0 0 0 0 0 0 1 15
2 2 85 54 114 50 109 83 51 10 13 24 0 0 0 0 0 0 0 0 0 0 0 0 0 0 0 0 0 0 0 1 21
4 6 96 59 45 66 83 99 57 20 11 28 11 0 0 0 0 0 0 0 0 0 0 0 0 0 0 0 0 0 0 0 2
5 6 13 36 54 37 7 56 47 25 16 0 19 2 0 0 0 0 0 0 0 0 0 0 0 7 9 5 10 0 0 0 0

GFSFLT1_con_mucape_144.txt.gz
CAPE
925 1101 1216 1437 1260 1262 974 724 226 222 115 5 2 0 0 1 3 16 25 7 20 36 7 24 36 17 25 23 22 14 13 21 24
1104 1167 1234 1335 1253 1123 602 237 34 105 86 5 1 0 0 5 3 4 13 20 14 17 16 13 24 24 22 24 10 8 18 14 11
1124 1335 1430 1336 1149 818 503 158 4 37 21 3 0 0 0 0 1 6 25 27 19 26 10 19 16 18 16 20 14 8 12 13 13
1454 1227 1197 1358 1122 829 693 540 135 63 30 0 0 0 0 0 1 4 27 19 18 9 13 8 6 14 15 6 6 6 9 4 7
1330 923 1068 1014 933 760 687 690 406 163 92 0 0 0 0 2 4 4 13 34 6 7 6 5 9 7 4 4 5 3 8 4 5
1031 504 829 706 830 724 455 593 430 69 0 0 0 0 0 3 4 4 21 25 13 10 8 7 6 4 2 0 0 1 3 2 1
603 673 675 612 647 462 469 534 208 4 2 1 0 0 0 3 5 8 7 14 12 13 8 6 6 3 0 0 0 0 0 0 0
910 1161 782 971 428 523 158 49 12 1 4 1 0 0 0 1 2 4 8 23 13 11 4 3 2 1 0 0 0 0 0 0 0
437 426 1075 697 617 475 200 35 5 6 0 0 0 0 0 0 0 2 1 25 8 8 7 5 0 0 0 0 0 0 0 0 0
741 560 1005 824 498 416 293 185 11 3 0 0 0 0 0 0 0 4 0 5 24 8 9 8 3 1 1 0 0 0 0 0 0
1034 686 647 702 593 434 330 213 15 2 0 0 0 0 0 0 0 0 0 0 8 17 10 10 5 5 4 3 1 0 0 0 0
911 1020 789 437 515 300 238 170 32 1 0 0 0 0 0 0 0 0 0 0 0 5 11 8 4 4 1 3 9 7 0 0 0
1115 1117 1025 767 201 239 143 127 38 0 0 0 0 0 0 0 1 0 0 0 0 0 0 19 9 8 11 17 38 48 12 5 3
672 745 723 475 380 122 55 38 20 2 0 0 0 0 2 0 0 0 0 0 0 0 0 0 0 20 51 69 81 114 141 102 87
344 536 399 452 178 151 88 39 32 8 0 0 0 2 1 3 0 0 0 0 0 0 0 0 0 0 0 26 63 83 105 118 114
0 176 200 304 178 167 145 85 24 6 1 5 0 0 2 3 1 0 0 0 0 0 0 0 0 0 0 0 5 17 33 46 71
0 4 271 178 126 76 87 114 68 32 2 0 4 0 0 0 0 0 0 0 0 0 0 0 0 19 26 9 0 0 0 4 19
0 0 71 158 126 74 54 74 80 99 12 8 1 3 0 0 0 0 0 0 0 0 0 0 4 29 40 13 0 0 0 0 11
0 0 9 38 153 92 28 37 104 89 65 27 7 0 0 0 0 0 0 0 0 0 0 0 22 28 35 15 4 0 0 5 32
0 0 0 72 189 148 67 17 5 50 63 32 12 4 0 0 6 0 0 0 0 0 0 0 14 5 19 21 8 6 4 1 6

GFSFLT1_con_mucape_147.txt.gz
CAPE
868 1081 1105 1121 1109 991 1058 692 546 299 116 3 0 0 0 0 4 14 5 17 26 6 20 33 14 19 20 14 6 25 15 20 18
1262 1117 1105 1332 1372 872 765 493 216 122 135 2 0 0 0 5 8 13 5 33 10 3 8 16 18 22 13 8 13 9 13 7 10
1218 1084 1162 1448 1192 866 649 206 66 32 39 2 0 0 0 2 6 21 10 21 12 8 17 15 18 10 18 11 9 3 12 13 12
1290 1357 1354 1473 1090 829 760 426 143 70 8 1 0 0 0 2 8 40 6 30 8 11 7 9 7 15 5 7 4 8 4 7 7
1464 1088 1174 1255 1035 787 617 531 307 203 115 0 0 0 0 2 0 18 4 17 13 12 6 7 8 4 4 0 6 3 2 3 5
752 654 732 935 883 802 778 683 430 108 0 0 0 0 0 6 7 14 8 19 9 8 8 7 5 2 0 0 0 0 1 1 1
161 422 598 680 695 608 681 611 297 0 0 0 0 0 0 5 4 9 0 11 10 12 7 4 2 0 0 0 0 0 0 0 0
332 1128 819 870 519 586 290 263 122 0 3 0 0 0 0 5 5 1 0 9 15 22 7 0 1 0 0 0 0 0 0 0 0
632 828 1124 670 685 542 332 167 42 3 5 0 0 0 0 0 5 0 0 2 19 20 9 3 1 0 0 0 0 0 0 0 0
1090 622 828 1001 618 619 394 77 45 16 9 0 0 0 0 0 1 4 0 0 22 17 9 5 4 2 1 0 0 0 0 0 0
890 788 803 816 806 689 428 188 49 28 13 1 0 0 0 0 0 0 0 0 5 28 3 6 7 6 5 4 1 0 0 0 0
936 820 834 1000 675 519 311 226 75 44 14 4 0 0 0 0 0 0 1 0 0 3 12 9 8 7 7 7 1 3 0 0 0
732 1013 924 861 623 724 424 158 99 11 12 5 0 0 0 0 0 0 0 0 0 0 0 56 23 6 39 17 17 30 39 42 15
61 861 848 795 690 611 571 350 179 61 1 0 0 0 0 0 0 0 0 0 0 0 0 0 0 5 37 26 52 71 182 171 109
0 271 869 707 480 595 396 308 131 111 8 0 0 0 0 0 0 0 0 0 0 0 0 0 0 0 4 49 95 103 103 176 134
0 109 439 748 435 371 206 177 116 77 27 24 0 0 0 0 2 0 0 0 0 0 0 0 0 0 0 9 36 49 67 76 54
0 1 129 502 569 301 249 192 139 147 55 17 19 2 0 0 2 0 0 0 0 0 0 0 0 0 0 0 0 17 22 34 36
0 0 0 326 502 314 206 146 111 115 70 45 32 11 0 0 0 0 0 0 0 0 0 0 0 0 0 13 13 4 0 6 16
0 0 0 0 216 198 103 80 70 134 33 44 77 31 0 2 1 0 3 0 0 0 0 0 0 0 0 24 34 35 6 0 20
0 0 0 0 0 158 190 104 107 56 41 57 53 55 27 16 20 10 5 0 0 0 0 0 0 0 0 21 21 24 9 2 48